Wind_Speed
17 16 18 17 18 18 17 18 19 16 15 15 13 13 14 11 11 11 11 12 13 15 17 20 21 23 25
18 18 17 16 17 19 18 16 16 16 13 13 13 14 15 12 12 15 15 14 15 13 13 17 18 20 22
21 18 16 16 17 18 17 16 14 16 18 17 15 14 13 12 18 17 17 17 14 14 17 17 15 17 21
18 18 18 15 17 14 15 16 16 16 15 16 14 15 14 20 20 19 17 16 14 13 15 16 16 17 20
17 17 15 14 12 16 12 17 19 17 9 10 12 19 26 22 20 15 15 16 18 16 17 19 21 21 23
17 14 17 15 15 9 15 13 6 7 16 22 20 20 17 16 16 14 13 15 15 15 17 20 22 19 21
20 19 17 14 10 15 16 16 16 18 19 19 14 19 15 18 16 16 17 16 16 17 17 19 21 17 18
24 22 19 18 15 15 15 18 19 18 13 11 10 18 14 15 14 10 13 14 15 15 14 18 20 17 15
22 23 20 17 16 13 14 13 10 8 7 9 7 12 18 14 4 5 7 9 12 13 13 15 18 19 16
22 23 21 20 19 16 14 13 11 8 4 3 4 8 7 6 6 11 14 14 12 14 15 15 15 18 16
22 23 22 21 20 18 17 16 14 15 11 7 5 8 9 8 11 15 13 13 16 15 15 15 14 12 16
21 21 20 21 22 20 19 20 21 21 17 14 9 8 12 14 10 11 16 18 11 15 13 14 14 11 9
22 23 23 26 21 19 18 18 20 20 19 18 19 20 18 14 14 16 17 12 19 7 15 12 13 14 12
25 24 22 23 21 20 18 14 13 15 17 14 16 17 16 16 17 19 17 10 13 16 12 12 10 7 6
25 24 20 19 19 19 17 13 12 9 8 11 11 13 17 18 17 16 17 15 14 13 8 11 9 8 7
25 24 22 20 18 18 16 14 12 12 9 8 8 6 7 12 20 18 12 11 10 8 9 9 11 9 10
25 24 22 20 18 15 15 15 14 14 12 9 7 6 6 7 6 12 10 7 7 9 10 9 13 14 11
Wind_Direction
284 293 298 301 303 305 299 291 288 279 283 285 280 286 297 276 290 294 280 272 269 274 281 282 277 272 271
293 300 301 302 304 306 305 304 293 292 288 287 283 293 295 281 290 297 286 283 283 291 291 291 282 275 273
286 296 304 311 313 307 307 323 317 303 293 291 286 287 292 287 312 302 290 284 282 291 299 301 303 289 290
281 292 299 303 306 310 317 313 313 313 304 300 289 289 280 304 306 297 287 285 284 293 302 303 300 302 306
279 286 292 298 298 305 312 321 309 305 308 301 318 302 298 303 301 299 283 286 296 300 304 304 303 304 306
274 275 283 291 293 308 311 307 310 290 336 308 306 299 301 302 305 296 285 288 300 305 307 312 308 307 307
264 265 271 276 282 298 296 289 286 296 310 295 298 293 304 306 306 298 293 296 299 305 309 308 308 306 310
256 256 261 271 267 279 284 287 286 288 293 279 302 301 302 306 314 291 275 290 298 308 315 314 315 317 315
253 255 259 257 260 269 272 280 291 282 278 278 304 312 304 294 324 352 344 335 329 327 324 324 325 319 319
247 244 253 257 249 252 254 250 259 297 172 286 304 334 315 286 307 324 327 324 328 328 324 325 328 330 326
255 254 254 249 247 249 250 234 236 242 239 300 263 295 270 291 299 305 312 320 321 318 322 321 324 327 327
246 245 241 244 250 253 253 248 246 248 251 264 259 260 276 288 285 305 311 314 300 314 312 323 322 317 317
245 249 243 262 261 249 249 248 250 251 250 252 254 260 255 257 276 292 313 304 304 293 315 319 321 319 325
249 248 248 258 249 242 244 243 245 257 252 244 246 246 252 255 265 279 285 281 296 308 306 314 316 307 308
242 241 242 242 238 235 236 237 231 244 248 243 246 250 255 261 266 267 274 278 286 291 293 306 309 305 298
239 237 233 226 224 227 227 222 229 243 245 255 261 260 267 267 253 256 266 270 285 285 292 289 303 312 308
235 234 231 223 216 213 218 222 235 240 247 247 237 221 247 257 269 243 241 263 286 283 284 275 297 301 312
Height
749 749 747 745 742 740 738 736 734 732 732 730 728 727 726 724 723 722 721 720 719 719 718 717 716 716 717
746 744 743 741 739 736 734 731 729 727 727 726 725 724 722 721 720 718 716 715 714 713 711 710 709 708 709
741 740 739 738 736 733 730 727 724 723 722 721 720 719 718 717 716 713 711 710 709 707 706 703 702 701 701
740 737 735 734 733 730 727 725 722 719 717 715 714 714 713 712 710 709 706 705 704 702 701 699 697 695 693
737 734 733 731 729 728 725 723 719 716 712 710 709 708 706 705 703 702 702 701 699 697 695 693 691 688 685
732 729 729 729 728 725 724 720 716 714 710 706 706 701 700 699 698 696 696 695 694 693 690 687 684 681 678
726 725 724 724 724 722 722 719 716 713 711 702 702 697 696 694 692 692 691 690 688 687 685 682 678 674 671
720 719 719 719 719 718 717 715 712 710 708 699 697 695 692 689 686 684 684 684 683 681 679 676 673 669 665
712 712 712 713 713 713 711 710 707 703 703 701 695 692 689 685 682 681 681 680 678 676 674 671 669 665 660
706 706 706 705 706 706 706 705 704 700 697 698 695 695 689 683 680 679 678 677 675 673 670 668 664 662 658
699 699 698 698 698 698 698 698 698 695 694 694 692 693 693 685 680 678 676 673 672 669 667 664 662 659 657
692 690 690 690 691 691 690 690 689 688 690 691 689 688 687 684 679 675 674 672 669 666 663 660 658 656 654
681 682 682 683 684 684 683 683 683 682 682 682 682 682 682 679 676 674 673 668 667 663 660 657 654 652 647
673 672 673 675 676 676 676 676 677 676 675 674 674 676 675 674 673 670 671 670 664 660 657 654 652 650 648
664 664 664 665 667 668 669 670 669 668 669 669 669 669 669 669 668 666 665 663 660 657 655 652 649 648 645
654 654 655 656 658 660 662 662 662 663 662 663 664 664 664 662 661 659 660 658 656 654 653 651 647 645 643
644 644 645 647 649 652 654 656 656 657 657 658 659 659 660 658 656 656 655 654 653 652 650 648 645 642 639